7 * 24
多渠道服务支持
STARLINK-36672是美国SpaceX公司星链(Starlink)星座的成员卫星,于2026年2月20日发射升空。星链项目旨在搭建覆盖全球的低轨卫星互联网,为偏远地区等网络薄弱区域提供高速宽带服务。该卫星运行于近地轨道,采用平板设计,搭载霍尔推进器,具备自主避撞能力,服役结束后会主动离轨并在大气层中焚毁,是SpaceX构建全球卫星通信网络的重要组成部分。
美国
(US)
| 数据来源 | 国际轨道数据 |
| 星历时间: | 2026-03-14T21:57:23+0800 7小时前 查看轨道信息 |
| 半长轴: | 6705.873km |
| 偏心率: | 0.000165 |
| 轨道倾角: | 53.158° |
| 近地点辐角 | 56.423° |
| 升交点赤经 | 186.628° |
| 平近点角 | 303.695° |
| 近地点: | 326.629km |
| 远地点: | 328.843km |
| 周期: | 91.084分钟 |
| 每日圈数: | 15.80956 |